Regional Weather Roundup
Issued by NWS

Home | Current Version | Previous Version | Graphics & Text | Print | Product List | Glossary On
Versions: 1 2 3 4 5 6 7 8 9 10 11 12 13 14 15 16 17 18 19 20 21 22 23 24 25 26 27 28 29 30 31 32 33 34 35 36 37 38 39 40 41 42 43 44 45 46 47 48 49 50
000
ASUS43 KLOT 211910
RWRIL

ILLINOIS REGIONAL WEATHER ROUNDUP
NATIONAL WEATHER SERVICE CHICAGO/ROMEOVILLE IL
200 PM CDT TUE OCT 21 2014

NOTE: "FAIR" INDICATES FEW OR NO CLOUDS BELOW 12,000 FEET WITH NO
SIGNIFICANT WEATHER AND/OR OBSTRUCTIONS TO VISIBILITY.

* THESE STATIONS ARE NOT UNDER NWS QUALITY CONTROL. THEY ALSO MAY NOT
  REPORT WEATHER SUCH AS PRECIPITATION OR FOG.

ILZ001-002-007-009-015-016-024-212000-
NORTHWEST ILLINOIS

CITY           SKY/WX    TMP DP  RH WIND       PRES   REMARKS
MOLINE         SUNNY     58  39  49 N8        30.17F
STERLING*      SUNNY     57  39  51 NE10      30.18F
SAVANNA*       SUNNY     57  37  45 E7        30.19F
$$

ILZ003-004-008-010-011-017-018-212000-
NORTH CENTRAL ILLINOIS

CITY           SKY/WX    TMP DP  RH WIND       PRES   REMARKS
ROCKFORD       CLOUDY    53  38  56 N12       30.22S
FREEPORT*      PTSUNNY   51  37  58 NE7       30.22S
ROCHELLE*      CLOUDY    53  38  56 NE12      30.19S
DE KALB*       CLOUDY    51  37  60 N9G16     30.19S
PERU*          PTSUNNY   57  39  50 NE15G23   30.17F
$$

ILZ005-006-012>014-019>023-212000-
NORTHEAST ILLINOIS

CITY           SKY/WX    TMP DP  RH WIND       PRES   REMARKS
CHICAGO-OHARE  CLOUDY    51  40  65 N21G26    30.18R
CHICAGO-MIDWAY CLOUDY    53  42  66 N17       30.17S
AURORA         CLOUDY    55  39  54 NE15G21   30.18S
LANSING*       RAIN      49  46  89 N9G20     30.17S
JOLIET*        CLOUDY    53  40  62 NE12      30.17S
WAUKEGAN       CLOUDY    48  39  71 N9        30.19S
DUPAGE AIRPORT CLOUDY    53  40  61 N15       30.18R
KANKAKEE*      CLOUDY    53  43  70 NE10G18   30.16F
WHEELING       CLOUDY    50  40  68 N10       30.20R
MORRIS*        CLOUDY    56  42  59 N7        30.16F
ROMEOVILLE*    CLOUDY    53  40  61 NE10      30.17S
NORTHERLY ISL    N/A     51  44  77 N16         N/A
$$

LMZ740>746-212000-
SOUTHERN LAKE MICHIGAN

STATION/POSITION SKY/WX   TEMP    WIND        PRES    VSBY  WAVE
                          AIR SEA DIR/SP/G                  HT/PER
                          (F)     (DEG/KT/KT) (MB)    (MI)  (FT/S)
SOUTHERN BUOY              50 54  360/ 17/ 21 1021.5S         6/ 7
WAUKEGAN HARBOR            49     360/ 13/ 19   N/A
HARRISON CRIB              50     350/ 25/ 28   N/A
BURNHAM HARBOR             50     330/ 15/ 19   N/A
CALUMET HARBOR             51     340/ 14/ 19 1020.4S
MICHIGAN CITY              51     350/ 23/ 25   N/A
$$

ILZ025>027-034>036-040-047-049-050-058-095>099-212000-
WEST-CENTRAL ILLINOIS

CITY           SKY/WX    TMP DP  RH WIND       PRES   REMARKS
QUINCY         SUNNY     62  42  47 E6        30.14F
GALESBURG*     SUNNY     59  42  53 N10       30.16S
MACOMB*        SUNNY     61  40  46 NE12      30.17F
JACKSONVILLE*  SUNNY     63  42  46 N12       30.14F
PITTSFIELD*    SUNNY     64  43  46 CALM      30.14F HAZE
$$

ILZ028>032-037-038-041>044-048-051>054-059>061-212000-
CENTRAL ILLINOIS

CITY           SKY/WX    TMP DP  RH WIND       PRES   REMARKS
BLOOMINGTON    SUNNY     58  39  49 NE12      30.15F
DECATUR        SUNNY     60  43  53 N12G18    30.14F
PEORIA         SUNNY     61  39  44 NE9       30.15F
LACON*         SUNNY     57  37  46 NE7       30.16S
LINCOLN*       SUNNY     61  40  45 N13       30.13F
SPRINGFIELD    SUNNY     62  41  46 NE15      30.14F
TAYLORVILLE    SUNNY     61  43  51 NE7       30.13S
$$

ILZ033-039-045-046-055>057-062-063-212000-
EAST-CENTRAL ILLINOIS

CITY           SKY/WX    TMP DP  RH WIND       PRES   REMARKS
CHAMPAIGN      MOSUNNY   60  38  43 NE13      30.13F
DANVILLE*      CLOUDY    57  40  53 N14       30.10F
RANTOUL*       MOSUNNY   58  36  44 NE12G21   30.14F
MATTOON        PTSUNNY   58  41  53 N10       30.12S
PARIS*         PTSUNNY   57  40  52 N8        30.12F
$$

ILZ079-100>102-212000-
SOUTHWEST ILLINOIS

CITY           SKY/WX    TMP DP  RH WIND       PRES   REMARKS
ALTON          SUNNY     64  39  39 N12       30.11F
BELLEVILLE     SUNNY     66  47  48 N5        30.10F
CAHOKIA*       SUNNY     67  46  47 VRB6      30.12F
SPARTA*        SUNNY     67  45  46 N9        30.11F
$$

ILZ064>066-069>071-074>076-080>082-084>086-088>090-092>094-212000-
SOUTH-CENTRAL ILLINOIS

CITY           SKY/WX    TMP DP  RH WIND       PRES   REMARKS
CARBONDALE     SUNNY     68  44  42 N5        30.10F
CAIRO*         SUNNY     75  44  32 NW12G18   30.07F
EFFINGHAM*     MOSUNNY   62  38  41 N6        30.12S
MARION         SUNNY     66  45  45 N12       30.10F
MT. VERNON     SUNNY     64  46  52 N8        30.11F
CENTRALIA*     SUNNY     65  44  47 N9        30.10F
SALEM*         MOSUNNY   66  46  48 N9G17     30.11F
METROPOLIS*    SUNNY     71  45  40 N7        30.06F
$$

ILZ067-068-072-073-078-083-087-091-212000-
SOUTHEAST ILLINOIS

CITY           SKY/WX    TMP DP  RH WIND       PRES   REMARKS
LAWRENCEVILLE  PTSUNNY   64  42  44 N14G20    30.10F
FLORA*         SUNNY     63  42  46 N8        30.11F
FAIRFIELD*     MOSUNNY   63  44  49 N8        30.09F
HARRISBURG*    SUNNY     66  46  49 NW6       30.10F
ROBINSON*      PTSUNNY   64  42  45 N6G16     30.11F
CARMI*         MOSUNNY   65  47  51 N8        30.08F
$$

ABBREVIATIONS USED IN REMARKS
   TC - TEMPERATURE IN CELSIUS
  WCI - WIND CHILL INDEX
   HX - HEAT INDEX
  VSB - VISIBILITY
$$




USA.gov is the U.S. government's official web portal to all federal, state and local government web resources and services.